Zurück zum Katalog

CZ-4 DEB

AktivSSO
NORAD 37612·DEBRIS·🇨🇳 China

Gestartet Sep 3, 1990 von Taiyuan Satellite Launch Center

Loading…

Nächste Überflüge (nächste 24 Stunden)

TLE

AlterndSource: Space-Track

Epoche: Sep 7, 2026, 08:59 UTC

1 37612U 90081CY  26250.37455141  .00001525  00000-0  35888-3 0  9990
2 37612  98.2631 290.2718 0027430 261.6217 110.6930 14.55543918695870

Verfolge CZ-4 DEB in Echtzeit mit AllMySat

Download on the App Store